Regional Weather Roundup
Issued by NWS

Home | Current Version | Previous Version | Graphics & Text | Print | Product List | Glossary On
Versions: 1 2 3 4 5 6 7 8 9 10 11 12 13 14 15 16 17 18 19 20 21 22 23 24 25 26 27 28 29 30 31 32 33 34 35 36 37 38 39 40 41 42 43 44 45 46 47 48 49 50
000
ASUS45 KBOI 191110
RWRID
WEATHER ROUNDUP FOR IDAHO
NATIONAL WEATHER SERVICE BOISE ID
500 AM MDT FRI SEP 19 2014

NOTE: "FAIR" INDICATES FEW OR NO CLOUDS BELOW 12000 FEET
WITH NO SIGNIFICANT WEATHER AND/OR OBSTRUCTIONS TO VISIBILITY

IDZ012-014-191200-
SOUTHWEST IDAHO


CITY           SKY/WX    TMP DP  RH WIND       PRES   REMARKS
BOISE          CLEAR     59  47  64 CALM      29.99R
CALDWELL       CLEAR     63  45  51 W9        30.00R
MOUNTAIN HOME  CLEAR     61  45  56 NW15      29.98R
$$

IDZ016-017-191200-
SOUTHCENTRAL IDAHO


CITY           SKY/WX    TMP DP  RH WIND       PRES   REMARKS
BURLEY         CLEAR     58  44  60 W7        29.99R
JEROME         CLEAR     54  43  66 S7        30.01R
TWIN FALLS     CLEAR     60  41  49 SW10      30.02R
$$

IDZ019>023-191200-
SOUTHEAST IDAHO


CITY           SKY/WX    TMP DP  RH WIND       PRES   REMARKS
IDAHO FALLS    CLEAR     55  50  83 SW9       30.00R
POCATELLO      CLEAR     50  50 100 S3        30.01R
REXBURG        CLEAR     50  48  93 CALM      30.02R
$$

IDZ006-010-011-018-031-032-191200-
CENTRAL IDAHO MOUNTAINS


CITY           SKY/WX    TMP DP  RH WIND       PRES   REMARKS
MCCALL         CLEAR     44  37  76 CALM      30.04R
HAILEY         CLEAR     48  37  66 NW12      30.07S
STANLEY          N/A     35  32  88 SE5       30.13S WCI  31
SALMON         CLEAR     45  39  81 CALM      30.00R
CHALLIS        CLEAR     46  38  73 CALM      30.03R
$$

IDZ002-004-006-007-026-191200-
NORTHERN IDAHO


CITY           SKY/WX    TMP DP  RH WIND       PRES   REMARKS
LEWISTON       CLOUDY    66  49  54 W5        29.96R
LOWELL           N/A     60  54  80 CALM      29.97R
COEUR D`ALENE  CLOUDY    59  46  63 S7        29.94R
MULLAN PASS    CLOUDY    46  44  93 SW7       30.04R
$$


USA.gov is the U.S. government's official web portal to all federal, state and local government web resources and services.